TimeEEST,TemperatureF,Dew PointF,Humidity,Sea Level PressureIn,VisibilityMPH,Wind Direction,Wind SpeedMPH,Gust SpeedMPH,PrecipitationIn,Events,Conditions,WindDirDegrees,DateUTC
12:20 AM,44.6,39.2,81,30.01,6.2,NNE,1.2,-,N/A,,Partly Cloudy,30,2012-10-24 21:20:00
12:50 AM,44.6,41.0,87,30.01,6.2,NE,4.6,-,N/A,,Partly Cloudy,40,2012-10-24 21:50:00
1:20 AM,44.6,41.0,87,30.01,6.2,NNE,3.5,-,N/A,,Partly Cloudy,20,2012-10-24 22:20:00
1:50 AM,42.8,39.2,87,30.01,6.2,NE,4.6,-,N/A,,Partly Cloudy,40,2012-10-24 22:50:00
2:20 AM,42.8,39.2,87,30.01,6.2,NE,1.2,-,N/A,,Partly Cloudy,40,2012-10-24 23:20:00
2:50 AM,41.0,37.4,87,30.01,6.2,NE,2.3,-,N/A,,Partly Cloudy,40,2012-10-24 23:50:00
3:00 AM,41,38,85,,12,NE,2.3,,,,Scattered Clouds,40,2012-10-25 00:00:00
3:20 AM,41.0,37.4,87,30.01,6.2,NNE,5.8,-,N/A,,Partly Cloudy,30,2012-10-25 00:20:00
3:50 AM,42.8,39.2,87,30.01,6.2,NNE,5.8,-,N/A,,Partly Cloudy,20,2012-10-25 00:50:00
4:20 AM,41.0,37.4,87,29.98,6.2,NNE,4.6,-,N/A,,Partly Cloudy,30,2012-10-25 01:20:00
4:50 AM,42.8,39.2,87,29.98,6.2,East,1.2,-,N/A,,Partly Cloudy,100,2012-10-25 01:50:00
5:20 AM,41.0,37.4,87,29.98,6.2,NNE,1.2,-,N/A,,Partly Cloudy,30,2012-10-25 02:20:00
5:50 AM,41.0,39.2,93,29.98,6.2,NNE,2.3,-,N/A,,Partly Cloudy,20,2012-10-25 02:50:00
6:20 AM,41.0,37.4,87,29.98,6.2,ENE,1.2,-,N/A,,Partly Cloudy,70,2012-10-25 03:20:00
6:50 AM,39.2,37.4,93,29.98,6.2,Calm,Calm,-,N/A,,Scattered Clouds,0,2012-10-25 03:50:00
7:20 AM,41.0,39.2,93,29.98,6.2,ENE,4.6,-,N/A,,Mostly Cloudy,60,2012-10-25 04:20:00
7:50 AM,42.8,39.2,87,29.98,6.2,Variable,1.2,-,N/A,,Mostly Cloudy,0,2012-10-25 04:50:00
8:20 AM,44.6,41.0,87,29.98,6.2,NE,3.5,-,N/A,,Mostly Cloudy,40,2012-10-25 05:20:00
8:50 AM,46.4,42.8,87,29.98,6.2,NE,4.6,-,N/A,,Mostly Cloudy,40,2012-10-25 05:50:00
9:00 AM,47,42,76,,12,NE,4.6,,,,Scattered Clouds,40,2012-10-25 06:00:00
9:20 AM,50.0,42.8,76,29.98,6.2,NNE,2.3,-,N/A,,Mostly Cloudy,30,2012-10-25 06:20:00
9:50 AM,53.6,44.6,72,29.98,6.2,Variable,1.2,-,N/A,,Mostly Cloudy,0,2012-10-25 06:50:00
10:20 AM,57.2,42.8,59,29.95,6.2,NE,10.4,-,N/A,,Scattered Clouds,50,2012-10-25 07:20:00
10:50 AM,59.0,42.8,55,29.95,6.2,NE,10.4,-,N/A,,Scattered Clouds,50,2012-10-25 07:50:00
11:20 AM,59.0,41.0,51,29.95,6.2,NNE,9.2,-,N/A,,Scattered Clouds,30,2012-10-25 08:20:00
11:50 AM,60.8,41.0,48,29.92,6.2,ENE,4.6,-,N/A,,Mostly Cloudy,60,2012-10-25 08:50:00
12:20 PM,60.8,42.8,52,29.92,6.2,NNE,4.6,-,N/A,,Mostly Cloudy,20,2012-10-25 09:20:00
12:50 PM,62.6,41.0,45,29.92,6.2,Variable,2.3,-,N/A,,Mostly Cloudy,0,2012-10-25 09:50:00
1:20 PM,64.4,41.0,42,29.89,6.2,Variable,1.2,-,N/A,,Mostly Cloudy,0,2012-10-25 10:20:00
1:50 PM,66.2,39.2,37,29.89,6.2,Variable,1.2,-,N/A,,Mostly Cloudy,0,2012-10-25 10:50:00
2:20 PM,68.0,37.4,33,29.86,6.2,NW,3.5,-,N/A,,Mostly Cloudy,310,2012-10-25 11:20:00
2:50 PM,64.4,35.6,34,29.86,6.2,Variable,1.2,-,N/A,,Mostly Cloudy,0,2012-10-25 11:50:00
3:00 PM,65,36,22,,12,ENE,1.2,,,,Partly Cloudy,70,2012-10-25 12:00:00
3:20 PM,64.4,35.6,34,29.86,6.2,Variable,2.3,-,N/A,,Mostly Cloudy,0,2012-10-25 12:20:00
3:50 PM,64.4,35.6,34,29.86,6.2,Variable,1.2,-,N/A,,Mostly Cloudy,0,2012-10-25 12:50:00
4:20 PM,64.4,39.2,40,29.86,6.2,West,5.8,-,N/A,,Mostly Cloudy,270,2012-10-25 13:20:00
4:50 PM,64.4,39.2,40,29.86,6.2,West,4.6,-,N/A,,Mostly Cloudy,270,2012-10-25 13:50:00
5:20 PM,62.6,37.4,39,29.86,6.2,WNW,6.9,-,N/A,,Mostly Cloudy,290,2012-10-25 14:20:00
5:50 PM,60.8,41.0,48,29.86,6.2,WNW,4.6,-,N/A,,Mostly Cloudy,300,2012-10-25 14:50:00
6:20 PM,59.0,41.0,51,29.86,6.2,NW,6.9,-,N/A,,Mostly Cloudy,310,2012-10-25 15:20:00
6:50 PM,59.0,42.8,55,29.89,6.2,WSW,8.1,-,N/A,,Mostly Cloudy,250,2012-10-25 15:50:00
7:20 PM,57.2,42.8,59,29.89,6.2,WSW,4.6,-,N/A,,Mostly Cloudy,250,2012-10-25 16:20:00
7:50 PM,57.2,42.8,59,29.89,6.2,West,6.9,-,N/A,,Mostly Cloudy,260,2012-10-25 16:50:00
8:20 PM,55.4,42.8,63,29.89,6.2,WSW,4.6,-,N/A,,Mostly Cloudy,250,2012-10-25 17:20:00
8:50 PM,55.4,42.8,63,29.89,6.2,SW,2.3,-,N/A,,Mostly Cloudy,220,2012-10-25 17:50:00
9:00 PM,55,43,54,,12,SW,2.3,,,,Partly Cloudy,220,2012-10-25 18:00:00
9:20 PM,55.4,44.6,67,29.89,6.2,West,4.6,-,N/A,,Mostly Cloudy,260,2012-10-25 18:20:00
9:50 PM,55.4,44.6,67,29.89,6.2,West,8.1,-,N/A,,Mostly Cloudy,260,2012-10-25 18:50:00
10:20 PM,53.6,44.6,72,29.92,6.2,West,8.1,-,N/A,,Mostly Cloudy,260,2012-10-25 19:20:00
10:50 PM,53.6,44.6,72,29.92,6.2,WSW,6.9,-,N/A,,Mostly Cloudy,250,2012-10-25 19:50:00
11:20 PM,51.8,44.6,76,29.89,6.2,WSW,3.5,-,N/A,,Mostly Cloudy,240,2012-10-25 20:20:00
11:50 PM,50.0,44.6,82,29.92,6.2,Calm,Calm,-,N/A,,Mostly Cloudy,0,2012-10-25 20:50:00